Date String (YYYY-MM-DD hh:mm:ss) UTC,Instrument flags,absolute air pressure of the measurement (hPa),sample flow rate (lpm),inlet stack bypass flow (lpm),air temperature of the measurement (°C),ambient temperature measured by the external sensor (°C),aerosol sample conditioner tube jacket temperature (°C),OPC LED temperature (°C),internal box temperature (°C),relative humidity of the measurement (%),span deviation,mass concentration of particles derived from Lorenz-Mie calculation of OPC scattering (μg/m³),mass concentration of particles derived from Lorenz-Mie calculation of OPC scattering (μg/m³),mass concentration of particles derived from Lorenz-Mie calculation of OPC scattering (μg/m³)
DateTimeUTC,F1_M11,P_M11,Q1_M11,Q2_M11,T1_M11,T2_M11,T3_M11,T4_M11,T5_M11,U1_M11,ZSPAN_M11,X0_M11,X2_M11,X1_M11
2023-08-02 14:00:00,SystemResetWarning,0835.1,5.00,000.00,030.0,028.4,000.0,038.4,031.4,33.5,0000.0,0013.71,0004.62,0003.54
2023-08-02 14:01:00,SystemResetWarning,0835.0,5.00,000.00,030.0,028.4,000.0,038.4,031.4,33.3,0000.0,0014.28,0004.66,0003.53
2023-08-02 14:02:00,SystemResetWarning,0835.1,5.00,000.00,030.0,028.5,000.0,038.4,031.4,33.4,0000.0,0015.13,0004.67,0003.52
2023-08-02 14:03:00,SystemResetWarning,0834.8,5.00,000.00,030.0,028.6,000.0,038.4,031.5,33.2,0000.0,0015.23,0004.69,0003.53
2023-08-02 14:04:00,SystemResetWarning,0834.7,5.01,000.00,030.0,028.6,000.0,038.5,031.5,33.2,0000.0,0015.05,0004.70,0003.53
2023-08-02 14:05:00,SystemResetWarning,0835.1,5.00,000.00,030.0,028.6,000.0,038.5,031.5,33.3,0000.0,0014.25,0004.73,0003.52
2023-08-02 14:06:00,SystemResetWarning,0835.1,5.00,000.00,030.1,028.6,000.0,038.5,031.5,33.5,0000.0,0014.30,0004.77,0003.53
2023-08-02 14:07:00,SystemResetWarning,0835.3,4.98,000.00,030.1,027.3,000.0,038.4,031.4,33.5,0000.0,0014.14,0004.72,0003.54
2023-08-02 14:08:00,SystemResetWarning,0835.2,5.01,000.00,030.0,026.0,000.0,038.3,031.2,33.7,0000.0,0013.07,0004.66,0003.53
2023-08-02 14:09:00,SystemResetWarning,0835.1,5.01,000.00,029.9,025.8,000.0,038.2,030.9,33.8,0000.0,0012.99,0004.63,0003.54
2023-08-02 14:10:00,SystemResetWarning,0835.1,5.01,000.00,029.8,026.0,000.0,038.3,030.8,34.0,0000.0,0012.24,0004.61,0003.54
2023-08-02 14:11:00,SystemResetWarning,0835.1,4.99,000.00,029.7,026.4,000.0,038.3,030.9,34.1,0000.0,0011.99,0004.58,0003.55
2023-08-02 14:12:00,SystemResetWarning,0834.7,5.00,000.00,029.7,026.8,000.0,038.3,031.0,34.0,0000.0,0011.60,0004.57,0003.56
2023-08-02 14:13:00,SystemResetWarning,0834.9,5.00,000.00,029.7,027.1,000.0,038.3,031.0,33.5,0000.0,0010.75,0004.56,0003.56
2023-08-02 14:14:00,SystemResetWarning,0834.7,5.00,000.00,029.7,027.3,000.0,038.2,031.1,32.8,0000.0,0010.68,0004.57,0003.57
2023-08-02 14:15:00,SystemResetWarning,0834.8,5.00,000.00,029.7,027.6,000.0,038.2,031.1,33.3,0000.0,0011.11,0004.57,0003.59
2023-08-02 14:16:00,SystemResetWarning,0834.8,5.00,000.00,029.7,027.8,000.0,038.2,031.1,33.5,0000.0,0011.39,0004.55,0003.60
2023-08-02 14:17:00,SystemResetWarning,0834.8,5.00,000.00,029.7,027.9,000.0,038.2,031.2,33.6,0000.0,0010.96,0004.52,0003.60
2023-08-02 14:18:00,SystemResetWarning,0835.1,5.00,000.00,029.7,028.1,000.0,038.2,031.2,33.9,0000.0,0010.74,0004.50,0003.60
2023-08-02 14:19:00,SystemResetWarning,0835.4,5.00,000.00,029.8,028.2,000.0,038.2,031.3,33.2,0000.0,0011.51,0004.47,0003.61
2023-08-02 14:20:00,SystemResetWarning,0835.3,5.00,000.00,029.8,028.3,000.0,038.2,031.3,32.7,0000.0,0011.40,0004.46,0003.61
2023-08-02 14:21:00,SystemResetWarning,0835.3,5.00,000.00,029.8,028.4,000.0,038.2,031.3,32.5,0000.0,0010.73,0004.45,0003.61
2023-08-02 14:22:00,SystemResetWarning,0835.3,5.00,000.00,029.8,028.4,000.0,038.3,031.4,32.8,0000.0,0010.25,0004.43,0003.59
2023-08-02 14:23:00,SystemResetWarning,0835.3,5.00,000.00,029.8,028.5,000.0,038.3,031.4,33.1,0000.0,0010.36,0004.41,0003.58
2023-08-02 14:24:00,SystemResetWarning,0835.3,5.00,000.00,029.9,028.6,000.0,038.3,031.4,33.7,0000.0,0010.96,0004.42,0003.58
2023-08-02 14:25:00,SystemResetWarning,0835.4,4.98,000.00,029.9,028.3,000.0,038.3,031.4,34.2,0000.0,0011.14,0004.41,0003.57
2023-08-02 14:26:00,SystemResetWarning,0835.2,5.01,000.00,029.9,026.7,000.0,038.1,031.2,34.3,0000.0,0011.14,0004.41,0003.57
2023-08-02 14:27:00,SystemResetWarning,0835.0,4.99,000.00,029.8,025.9,000.0,038.1,031.1,34.9,0000.0,0010.42,0004.40,0003.55
2023-08-02 14:28:00,SystemResetWarning,0834.7,5.02,000.00,029.8,025.9,000.0,038.1,030.9,35.3,0000.0,0010.56,0004.36,0003.54
2023-08-02 14:29:00,SystemResetWarning,0834.7,5.00,000.00,029.9,026.2,000.0,038.1,031.0,36.1,0000.0,0010.70,0004.34,0003.53
2023-08-02 14:30:00,SystemResetWarning,0834.8,4.99,000.00,030.2,026.5,000.0,038.1,031.1,35.8,0000.0,0010.44,0004.36,0003.53
2023-08-02 14:31:00,SystemResetWarning,0835.3,5.02,000.00,030.6,026.9,000.0,038.2,031.3,34.0,0000.0,0009.74,0004.35,0003.52
2023-08-02 14:32:00,SystemResetWarning,0835.3,4.98,000.00,030.8,027.2,000.0,038.2,031.4,33.2,0000.0,0009.90,0004.39,0003.52
2023-08-02 14:33:00,SystemResetWarning,0835.4,5.02,000.00,030.9,027.4,000.0,038.3,031.4,33.1,0000.0,0009.77,0004.36,0003.51
2023-08-02 14:34:00,SystemResetWarning,0835.4,5.00,000.00,031.0,027.7,000.0,038.4,031.4,32.7,0000.0,0009.65,0004.33,0003.50
2023-08-02 14:35:00,SystemResetWarning,0835.2,4.99,000.00,031.1,027.9,000.0,038.5,031.4,32.7,0000.0,0009.27,0004.33,0003.49
2023-08-02 14:36:00,SystemResetWarning,0835.3,4.99,000.00,031.1,028.0,000.0,038.6,031.5,32.9,0000.0,0008.89,0004.29,0003.48
2023-08-02 14:37:00,SystemResetWarning,0835.0,5.00,000.00,031.2,028.2,000.0,038.7,031.5,33.5,0000.0,0008.62,0004.27,0003.47
2023-08-02 14:38:00,SystemResetWarning,0835.0,5.00,000.00,031.2,028.3,000.0,038.8,031.6,33.6,0000.0,0008.54,0004.25,0003.46
2023-08-02 14:39:00,SystemResetWarning,0835.2,5.00,000.00,031.2,028.4,000.0,038.9,031.6,34.1,0000.0,0008.49,0004.25,0003.46
2023-08-02 14:40:00,SystemResetWarning,0835.0,5.01,000.00,031.2,028.5,000.0,039.0,031.7,34.1,0000.0,0008.18,0004.25,0003.45
2023-08-02 14:41:00,SystemResetWarning,0834.9,4.99,000.00,031.2,028.6,000.0,039.0,031.7,34.9,0000.0,0008.23,0004.24,0003.43
2023-08-02 14:42:00,SystemResetWarning,0834.9,5.00,000.00,031.3,028.6,000.0,039.1,031.8,34.3,0000.0,0008.20,0004.17,0003.41
2023-08-02 14:43:00,SystemResetWarning,0834.9,4.99,000.00,031.3,027.8,000.0,039.0,031.8,34.5,0000.0,0008.02,0004.10,0003.39
2023-08-02 14:44:00,SystemResetWarning,0835.0,5.02,000.00,031.3,026.0,000.0,038.9,031.5,34.4,0000.0,0008.02,0004.07,0003.39
2023-08-02 14:45:00,SystemResetWarning,0835.3,5.01,000.00,031.3,025.1,000.0,038.8,031.3,33.4,0000.0,0008.04,0004.07,0003.39
2023-08-02 14:46:00,SystemResetWarning,0835.2,4.99,000.00,031.2,025.2,000.0,038.9,031.0,33.6,0000.0,0007.83,0004.03,0003.39
2023-08-02 14:47:00,SystemResetWarning,0834.9,4.99,000.00,031.0,025.5,000.0,038.9,031.0,35.8,0000.0,0007.74,0004.02,0003.40
2023-08-02 14:48:00,SystemResetWarning,0834.7,5.01,000.00,031.1,026.0,000.0,039.0,031.2,36.0,0000.0,0007.68,0004.02,0003.39
2023-08-02 14:49:00,SystemResetWarning,0834.8,5.00,000.00,031.4,026.4,000.0,039.0,031.4,35.6,0000.0,0007.93,0004.01,0003.39
2023-08-02 14:50:00,SystemResetWarning,0835.0,4.98,000.00,031.7,026.8,000.0,039.0,031.5,35.1,0000.0,0008.12,0004.00,0003.38
2023-08-02 14:51:00,SystemResetWarning,0835.2,5.02,000.00,031.9,027.1,000.0,039.1,031.6,33.4,0000.0,0008.06,0003.95,0003.38
2023-08-02 14:52:00,SystemResetWarning,0835.3,4.99,000.00,032.1,027.4,000.0,039.2,031.7,32.8,0000.0,0007.99,0003.94,0003.37
2023-08-02 14:53:00,SystemResetWarning,0835.3,4.99,000.00,032.2,027.7,000.0,039.3,031.7,32.6,0000.0,0007.80,0003.93,0003.37
2023-08-02 14:54:00,SystemResetWarning,0835.3,5.00,000.00,032.2,027.9,000.0,039.4,031.7,32.5,0000.0,0007.75,0003.95,0003.36
2023-08-02 14:55:00,SystemResetWarning,0834.9,5.01,000.00,032.3,028.0,000.0,039.5,031.8,32.5,0000.0,0007.74,0003.97,0003.36
2023-08-02 14:56:00,SystemResetWarning,0835.0,5.00,000.00,032.3,028.2,000.0,039.6,031.8,32.6,0000.0,0007.91,0003.99,0003.36
2023-08-02 14:57:00,SystemResetWarning,0835.0,5.00,000.00,032.3,028.3,000.0,039.7,031.8,32.3,0000.0,0007.95,0003.98,0003.35
2023-08-02 14:58:00,SystemResetWarning,0835.0,5.00,000.00,032.3,028.4,000.0,039.7,031.9,32.8,0000.0,0008.30,0003.96,0003.34
2023-08-02 14:59:00,SystemResetWarning,0835.0,5.00,000.00,032.2,028.5,000.0,039.8,031.9,31.9,0000.0,0008.29,0003.94,0003.33
